Location: Newark
(25.6108°S, 54.5803°W)
Time: 20:50:51
(UTC+00:00)

Courier 1B - Pass Details

Date: 30 October 2020
Orbit: 962 x 1209 km, 28.3° (Epoch: 24 November)

Event Time Altitude Azimuth Distance (km) Brightness Sun altitude
Rises 22:23:39 0° 328° (NNW) 3,768 10.7 -7.3°
Reaches altitude 10° 22:26:54 10° 342° (NNW) 2,862 9.9 -8.0°
Maximum altitude 22:32:14 23° 32° (NNE) 2,126 8.8 -9.1°
Enters shadow 22:37:14 12° 78° (ENE) 2,869 9.3 -10.2°
Drops below altitude 10° 22:37:49 10° 81° (E) 3,017 - -10.3°
Sets 22:41:19 0° 94° (E) 4,021 - -11.0°
